Time,TemperatureF,DewpointF,PressureIn,WindDirection,WindDirectionDegrees,WindSpeedMPH,WindSpeedGustMPH,Humidity,HourlyPrecipIn,Conditions,Clouds,dailyrainin,SoftwareType,DateUTC
2013-08-23 00:14:00,72.9,61.0,30.05,NNE,30,17.0,18.0,66,0.00,,,0.00,weatherlink.com 1.10,2013-08-23 04:14:00,
2013-08-23 00:29:00,72.2,63.0,30.05,North,359,13.0,18.0,73,0.00,,,0.00,weatherlink.com 1.10,2013-08-23 04:29:00,
2013-08-23 00:44:00,70.4,63.0,30.06,North,358,10.0,11.0,76,0.00,,,0.00,weatherlink.com 1.10,2013-08-23 04:44:00,
2013-08-23 00:59:00,69.2,62.0,30.06,North,352,9.0,11.0,77,0.00,,,0.00,weatherlink.com 1.10,2013-08-23 04:59:00,
2013-08-23 01:14:00,69.1,61.0,30.06,NNW,344,8.0,11.0,76,0.00,,,0.00,weatherlink.com 1.10,2013-08-23 05:14:00,
2013-08-23 01:30:00,69.4,59.0,30.06,North,352,9.0,15.0,70,0.00,,,0.00,weatherlink.com 1.10,2013-08-23 05:30:00,
2013-08-23 01:45:00,67.4,58.0,30.07,WNW,298,3.0,6.0,72,0.00,,,0.00,weatherlink.com 1.10,2013-08-23 05:45:00,
2013-08-23 02:00:00,67.7,57.0,30.06,North,6,12.0,12.0,69,0.00,,,0.00,weatherlink.com 1.10,2013-08-23 06:00:00,
2013-08-23 02:15:00,67.7,57.0,30.07,NNW,340,8.0,12.0,69,0.00,,,0.00,weatherlink.com 1.10,2013-08-23 06:15:00,
2013-08-23 02:30:00,67.0,56.0,30.07,NNW,334,10.0,13.0,67,0.00,,,0.00,weatherlink.com 1.10,2013-08-23 06:30:00,
2013-08-23 02:45:00,66.5,55.0,30.07,NNW,339,6.0,11.0,67,0.00,,,0.00,weatherlink.com 1.10,2013-08-23 06:45:00,
2013-08-23 03:00:00,66.5,54.0,30.06,North,352,9.0,11.0,65,0.00,,,0.00,weatherlink.com 1.10,2013-08-23 07:00:00,
2013-08-23 03:15:00,66.5,55.0,30.06,North,352,8.0,10.0,66,0.00,,,0.00,weatherlink.com 1.10,2013-08-23 07:15:00,
2013-08-23 03:30:00,66.2,53.0,30.06,North,354,8.0,10.0,63,0.00,,,0.00,weatherlink.com 1.10,2013-08-23 07:30:00,
2013-08-23 03:45:00,63.3,53.0,30.07,WSW,253,2.0,5.0,69,0.00,,,0.00,weatherlink.com 1.10,2013-08-23 07:45:00,
2013-08-23 04:00:00,62.0,53.0,30.07,WSW,256,2.0,4.0,73,0.00,,,0.00,weatherlink.com 1.10,2013-08-23 08:00:00,
2013-08-23 04:15:00,60.9,53.0,30.07,West,276,2.0,3.0,74,0.00,,,0.00,weatherlink.com 1.10,2013-08-23 08:15:00,
2013-08-23 04:30:00,61.1,52.0,30.07,WNW,285,2.0,4.0,72,0.00,,,0.00,weatherlink.com 1.10,2013-08-23 08:30:00,
2013-08-23 04:45:00,59.7,52.0,30.07,WNW,288,3.0,4.0,75,0.00,,,0.00,weatherlink.com 1.10,2013-08-23 08:45:00,
2013-08-23 05:00:00,59.3,51.0,30.07,WNW,286,2.0,4.0,75,0.00,,,0.00,weatherlink.com 1.10,2013-08-23 09:00:00,
2013-08-23 05:15:00,59.0,51.0,30.07,NW,307,2.0,5.0,74,0.00,,,0.00,weatherlink.com 1.10,2013-08-23 09:15:00,
2013-08-23 05:30:00,58.6,50.0,30.08,WNW,293,5.0,6.0,74,0.00,,,0.00,weatherlink.com 1.10,2013-08-23 09:30:00,
2013-08-23 05:45:00,58.6,51.0,30.08,NW,307,1.0,5.0,76,0.00,,,0.00,weatherlink.com 1.10,2013-08-23 09:45:00,
2013-08-23 06:00:00,58.5,51.0,30.08,NW,305,2.0,5.0,76,0.00,,,0.00,weatherlink.com 1.10,2013-08-23 10:00:00,
2013-08-23 06:15:00,58.4,51.0,30.09,NW,322,3.0,8.0,76,0.00,,,0.00,weatherlink.com 1.10,2013-08-23 10:15:00,
2013-08-23 06:30:00,57.9,50.0,30.09,NNW,328,2.0,7.0,76,0.00,,,0.00,weatherlink.com 1.10,2013-08-23 10:30:00,
2013-08-23 06:45:00,58.8,53.0,30.10,North,349,5.0,11.0,81,0.00,,,0.00,weatherlink.com 1.10,2013-08-23 10:45:00,
2013-08-23 07:00:00,59.8,54.0,30.10,NW,304,3.0,11.0,80,0.00,,,0.00,weatherlink.com 1.10,2013-08-23 11:00:00,
2013-08-23 07:16:00,58.9,52.0,30.11,NW,307,3.0,8.0,79,0.00,,,0.00,weatherlink.com 1.10,2013-08-23 11:16:00,
2013-08-23 07:31:00,59.3,53.0,30.11,NW,318,4.0,7.0,80,0.00,,,0.00,weatherlink.com 1.10,2013-08-23 11:31:00,
2013-08-23 07:46:00,60.8,55.0,30.12,NNW,348,7.0,11.0,80,0.00,,,0.00,weatherlink.com 1.10,2013-08-23 11:46:00,
2013-08-23 08:01:00,61.5,56.0,30.12,North,350,9.0,11.0,82,0.00,,,0.00,weatherlink.com 1.10,2013-08-23 12:01:00,
2013-08-23 08:16:00,61.8,56.0,30.13,NNW,330,8.0,12.0,81,0.00,,,0.00,weatherlink.com 1.10,2013-08-23 12:16:00,
2013-08-23 08:31:00,62.3,56.0,30.13,NNW,338,2.0,9.0,81,0.00,,,0.00,weatherlink.com 1.10,2013-08-23 12:31:00,
2013-08-23 08:46:00,62.5,57.0,30.13,NNW,342,5.0,10.0,81,0.00,,,0.00,weatherlink.com 1.10,2013-08-23 12:46:00,
2013-08-23 09:01:00,63.0,58.0,30.14,NNW,345,8.0,10.0,83,0.00,,,0.00,weatherlink.com 1.10,2013-08-23 13:01:00,
2013-08-23 09:16:00,63.5,58.0,30.14,NNW,344,9.0,12.0,83,0.00,,,0.00,weatherlink.com 1.10,2013-08-23 13:16:00,
2013-08-23 09:31:00,64.9,60.0,30.13,NNW,346,10.0,12.0,85,0.00,,,0.00,weatherlink.com 1.10,2013-08-23 13:31:00,
2013-08-23 09:46:00,65.4,61.0,30.13,NNE,29,12.0,13.0,86,0.00,,,0.00,weatherlink.com 1.10,2013-08-23 13:46:00,
2013-08-23 10:01:00,65.6,61.0,30.14,NNE,32,10.0,13.0,84,0.00,,,0.00,weatherlink.com 1.10,2013-08-23 14:01:00,
2013-08-23 10:16:00,66.0,62.0,30.14,NE,34,12.0,13.0,86,0.00,,,0.00,weatherlink.com 1.10,2013-08-23 14:16:00,
2013-08-23 10:31:00,66.1,62.0,30.14,NE,39,10.0,13.0,86,0.00,,,0.00,weatherlink.com 1.10,2013-08-23 14:31:00,
2013-08-23 10:46:00,66.5,62.0,30.14,NE,37,10.0,13.0,85,0.00,,,0.00,weatherlink.com 1.10,2013-08-23 14:46:00,
2013-08-23 11:01:00,67.1,64.0,30.15,NE,35,11.0,14.0,88,0.00,,,0.00,weatherlink.com 1.10,2013-08-23 15:01:00,
2013-08-23 11:16:00,67.7,63.0,30.15,NE,37,13.0,15.0,85,0.00,,,0.00,weatherlink.com 1.10,2013-08-23 15:16:00,
2013-08-23 11:31:00,68.0,64.0,30.15,NE,39,14.0,16.0,87,0.00,,,0.00,weatherlink.com 1.10,2013-08-23 15:31:00,
2013-08-23 11:46:00,68.3,64.0,30.16,NE,41,16.0,17.0,87,0.00,,,0.00,weatherlink.com 1.10,2013-08-23 15:46:00,
2013-08-23 12:01:00,68.5,64.0,30.16,NE,39,15.0,18.0,84,0.00,,,0.00,weatherlink.com 1.10,2013-08-23 16:01:00,
2013-08-23 12:16:00,68.8,64.0,30.16,NE,46,15.0,17.0,83,0.00,,,0.00,weatherlink.com 1.10,2013-08-23 16:16:00,
2013-08-23 12:31:00,68.8,64.0,30.16,NE,41,17.0,18.0,84,0.00,,,0.00,weatherlink.com 1.10,2013-08-23 16:31:00,
2013-08-23 12:46:00,68.7,63.0,30.16,NE,53,16.0,18.0,82,0.00,,,0.00,weatherlink.com 1.10,2013-08-23 16:46:00,
2013-08-23 13:01:00,68.6,63.0,30.16,NE,43,16.0,17.0,81,0.00,,,0.00,weatherlink.com 1.10,2013-08-23 17:01:00,
2013-08-23 13:16:00,68.6,63.0,30.15,NE,48,17.0,17.0,82,0.00,,,0.00,weatherlink.com 1.10,2013-08-23 17:16:00,
2013-08-23 13:31:00,68.7,62.0,30.16,NE,48,17.0,18.0,80,0.00,,,0.00,weatherlink.com 1.10,2013-08-23 17:31:00,
2013-08-23 13:46:00,68.7,62.0,30.15,ENE,57,17.0,18.0,80,0.00,,,0.00,weatherlink.com 1.10,2013-08-23 17:46:00,
2013-08-23 14:01:00,68.8,62.0,30.15,NE,46,16.0,18.0,80,0.00,,,0.00,weatherlink.com 1.10,2013-08-23 18:01:00,
2013-08-23 14:16:00,68.8,64.0,30.15,NE,51,16.0,18.0,83,0.00,,,0.00,weatherlink.com 1.10,2013-08-23 18:16:00,
2013-08-23 14:31:00,68.8,63.0,30.15,ENE,67,15.0,17.0,81,0.00,,,0.00,weatherlink.com 1.10,2013-08-23 18:31:00,
2013-08-23 14:46:00,68.9,63.0,30.15,ENE,71,16.0,19.0,81,0.00,,,0.00,weatherlink.com 1.10,2013-08-23 18:46:00,
2013-08-23 15:01:00,69.2,64.0,30.14,ENE,69,15.0,17.0,84,0.00,,,0.00,weatherlink.com 1.10,2013-08-23 19:01:00,
2013-08-23 15:16:00,69.1,62.0,30.14,ENE,62,17.0,19.0,77,0.00,,,0.00,weatherlink.com 1.10,2013-08-23 19:16:00,
2013-08-23 15:31:00,69.3,63.0,30.14,ENE,58,18.0,18.0,79,0.00,,,0.00,weatherlink.com 1.10,2013-08-23 19:31:00,
2013-08-23 15:46:00,69.3,63.0,30.14,ENE,67,17.0,19.0,79,0.00,,,0.00,weatherlink.com 1.10,2013-08-23 19:46:00,
2013-08-23 16:01:00,69.3,62.0,30.14,ENE,65,20.0,21.0,78,0.00,,,0.00,weatherlink.com 1.10,2013-08-23 20:01:00,
2013-08-23 16:16:00,69.4,62.0,30.14,ENE,65,20.0,20.0,76,0.00,,,0.00,weatherlink.com 1.10,2013-08-23 20:16:00,
2013-08-23 16:31:00,69.5,62.0,30.14,East,82,17.0,20.0,77,0.00,,,0.00,weatherlink.com 1.10,2013-08-23 20:31:00,
2013-08-23 16:46:00,69.7,61.0,30.14,ENE,76,19.0,20.0,73,0.00,,,0.00,weatherlink.com 1.10,2013-08-23 20:46:00,
2013-08-23 17:01:00,69.9,62.0,30.14,ENE,67,18.0,18.0,75,0.00,,,0.00,weatherlink.com 1.10,2013-08-23 21:01:00,
2013-08-23 17:16:00,69.9,61.0,30.14,ENE,68,18.0,20.0,74,0.00,,,0.00,weatherlink.com 1.10,2013-08-23 21:16:00,
2013-08-23 17:31:00,70.0,61.0,30.13,ENE,68,19.0,19.0,74,0.00,,,0.00,weatherlink.com 1.10,2013-08-23 21:31:00,
2013-08-23 17:46:00,69.9,60.0,30.14,ENE,68,17.0,21.0,72,0.00,,,0.00,weatherlink.com 1.10,2013-08-23 21:46:00,
2013-08-23 18:01:00,70.0,61.0,30.14,ENE,76,19.0,20.0,72,0.00,,,0.00,weatherlink.com 1.10,2013-08-23 22:01:00,
2013-08-23 18:16:00,70.2,61.0,30.14,ENE,68,20.0,20.0,73,0.00,,,0.00,weatherlink.com 1.10,2013-08-23 22:16:00,
2013-08-23 18:31:00,70.2,60.0,30.13,ENE,76,19.0,21.0,71,0.00,,,0.00,weatherlink.com 1.10,2013-08-23 22:31:00,
2013-08-23 18:46:00,70.2,61.0,30.14,ENE,68,18.0,21.0,72,0.00,,,0.00,weatherlink.com 1.10,2013-08-23 22:46:00,
2013-08-23 19:16:00,70.5,61.0,30.13,East,85,17.0,18.0,73,0.00,,,0.00,weatherlink.com 1.10,2013-08-23 23:16:00,
2013-08-23 19:31:00,70.8,61.0,30.14,ENE,72,17.0,17.0,72,0.00,,,0.00,weatherlink.com 1.10,2013-08-23 23:31:00,
2013-08-23 19:46:00,71.0,62.0,30.14,ENE,74,15.0,16.0,72,0.00,,,0.00,weatherlink.com 1.10,2013-08-23 23:46:00,
2013-08-23 20:01:00,70.9,61.0,30.14,East,79,15.0,17.0,70,0.00,,,0.00,weatherlink.com 1.10,2013-08-24 00:01:00,
2013-08-23 20:16:00,71.0,59.0,30.14,East,82,16.0,17.0,67,0.00,,,0.00,weatherlink.com 1.10,2013-08-24 00:16:00,
2013-08-23 20:31:00,71.0,59.0,30.14,ENE,78,15.0,15.0,66,0.00,,,0.00,weatherlink.com 1.10,2013-08-24 00:31:00,
2013-08-23 20:46:00,70.9,58.0,30.14,East,82,14.0,14.0,65,0.00,,,0.00,weatherlink.com 1.10,2013-08-24 00:46:00,
2013-08-23 21:01:00,70.8,61.0,30.15,East,79,12.0,15.0,70,0.00,,,0.00,weatherlink.com 1.10,2013-08-24 01:01:00,
2013-08-23 21:16:00,70.7,60.0,30.15,East,82,14.0,15.0,69,0.00,,,0.00,weatherlink.com 1.10,2013-08-24 01:16:00,
2013-08-23 21:31:00,70.3,58.0,30.16,East,83,12.0,15.0,66,0.00,,,0.00,weatherlink.com 1.10,2013-08-24 01:31:00,
2013-08-23 21:46:00,70.1,59.0,30.16,East,95,13.0,15.0,68,0.00,,,0.00,weatherlink.com 1.10,2013-08-24 01:46:00,
2013-08-23 22:02:00,69.8,59.0,30.16,East,84,14.0,15.0,68,0.00,,,0.00,weatherlink.com 1.10,2013-08-24 02:02:00,
2013-08-23 22:17:00,69.7,60.0,30.17,East,96,10.0,16.0,71,0.00,,,0.00,weatherlink.com 1.10,2013-08-24 02:17:00,
2013-08-23 22:32:00,69.6,58.0,30.17,East,82,13.0,14.0,67,0.00,,,0.00,weatherlink.com 1.10,2013-08-24 02:32:00,
2013-08-23 22:47:00,69.6,56.0,30.17,East,86,14.0,14.0,62,0.00,,,0.00,weatherlink.com 1.10,2013-08-24 02:47:00,
2013-08-23 23:02:00,69.5,57.0,30.18,East,92,13.0,14.0,64,0.00,,,0.00,weatherlink.com 1.10,2013-08-24 03:02:00,
2013-08-23 23:17:00,69.2,56.0,30.18,East,101,13.0,15.0,63,0.00,,,0.00,weatherlink.com 1.10,2013-08-24 03:17:00,
2013-08-23 23:32:00,68.9,57.0,30.18,East,91,12.0,14.0,65,0.00,,,0.00,weatherlink.com 1.10,2013-08-24 03:32:00,
2013-08-23 23:47:00,68.7,56.0,30.18,ESE,103,11.0,12.0,65,0.00,,,0.00,weatherlink.com 1.10,2013-08-24 03:47:00,